Lake Mead Weather Center

Moon Phase Calendar



Lake Mead Water Level
Online Cameras

 


      

Current Conditions in Meadview
5/25/2024 1:01:44 PM

86°F
Feels Like 82
Clear
Humidity
18%
Pressure
29.71"
Wind
12.2 mph (WSW)
Dew Point
37°F
UV Index
9/10 (Very High)
Visibility
6 mi

Hourly Forecast

Date & Time Sat, May 25
1:00 PM
Sat, May 25
2:00 PM
Sat, May 25
3:00 PM
Sat, May 25
4:00 PM
Sat, May 25
5:00 PM
Sat, May 25
6:00 PM
Sat, May 25
7:00 PM
Sat, May 25
8:00 PM
Sat, May 25
9:00 PM
Sat, May 25
10:00 PM
Sat, May 25
11:00 PM
Sun, May 26
12:00 AM
Sun, May 26
1:00 AM
Sun, May 26
2:00 AM
Sun, May 26
3:00 AM
Sun, May 26
4:00 AM
Sun, May 26
5:00 AM
Sun, May 26
6:00 AM
Sun, May 26
7:00 AM
Sun, May 26
8:00 AM
Sun, May 26
9:00 AM
Sun, May 26
10:00 AM
Sun, May 26
11:00 AM
Sun, May 26
12:00 PM
Sun, May 26
1:00 PM
Sun, May 26
2:00 PM
Sun, May 26
3:00 PM
Sun, May 26
4:00 PM
Sun, May 26
5:00 PM
Sun, May 26
6:00 PM
Sun, May 26
7:00 PM
Sun, May 26
8:00 PM
Sun, May 26
9:00 PM
Sun, May 26
10:00 PM
Sun, May 26
11:00 PM
Mon, May 27
12:00 AM
Mon, May 27
1:00 AM
Mon, May 27
2:00 AM
Mon, May 27
3:00 AM
Mon, May 27
4:00 AM
Mon, May 27
5:00 AM
Mon, May 27
6:00 AM
Mon, May 27
7:00 AM
Mon, May 27
8:00 AM
Mon, May 27
9:00 AM
Mon, May 27
10:00 AM
Mon, May 27
11:00 AM
Mon, May 27
12:00 PM
Condition
Clear

Clear

Clear

Clear

Clear

Clear

Clear

Clear

Clear

Clear

Clear

Clear

Clear

Clear

Clear

Clear

Clear

Clear

Clear

Clear

Clear

Clear

Clear

Clear

Clear

Clear

Clear

Clear

Clear

Clear

Clear

Clear

Clear

Clear

Clear

Clear

Clear

Clear

Clear

Clear

Clear

Clear

Clear

Clear

Clear

Clear

Clear

Clear
Temperature 86°F86°F87°F88°F89°F89°F87°F83°F80°F79°F76°F74°F74°F73°F71°F69°F68°F70°F75°F78°F82°F85°F88°F90°F92°F93°F94°F94°F94°F92°F90°F85°F83°F81°F79°F78°F77°F75°F74°F73°F72°F74°F81°F84°F87°F90°F92°F94°F
Feels Like 82°F83°F83°F84°F85°F85°F84°F80°F78°F77°F74°F73°F72°F70°F69°F67°F66°F67°F73°F77°F80°F82°F84°F86°F87°F89°F89°F89°F89°F88°F86°F82°F80°F79°F79°F76°F75°F73°F72°F71°F70°F72°F79°F81°F84°F86°F88°F90°F
Cloudiness 0%0%0%0%0%1%1%1%1%0%0%0%0%0%0%0%0%0%0%0%0%0%0%0%0%0%0%0%0%0%0%0%0%0%0%0%0%0%0%0%0%0%0%0%0%0%0%0%
Visibility 6 mi6 mi6 mi6 mi6 mi6 mi6 mi6 mi6 mi6 mi6 mi6 mi6 mi6 mi6 mi6 mi6 mi6 mi6 mi6 mi6 mi6 mi6 mi6 mi6 mi6 mi6 mi6 mi6 mi6 mi6 mi6 mi6 mi6 mi6 mi6 mi6 mi6 mi6 mi6 mi6 mi6 mi6 mi6 mi6 mi6 mi6 mi6 mi
Precipitation 0%0%0%0%0%0%0%0%0%0%0%0%0%0%0%0%0%0%0%0%0%0%0%0%0%0%0%0%0%0%0%0%0%0%0%0%0%0%0%0%0%0%0%0%0%0%0%0%
Humidity 18%17%16%15%14%14%15%17%16%16%18%21%22%22%24%25%27%27%22%20%18%15%13%13%12%11%10%10%10%10%11%13%14%15%16%17%18%19%20%21%22%21%16%14%13%12%11%10%
Dew Point 37°F36°F35°F35°F34°F32°F33°F31°F28°F27°F28°F29°F30°F30°F30°F30°F30°F32°F31°F31°F31°F31°F30°F30°F30°F29°F29°F28°F27°F26°F27°F27°F26°F27°F27°F27°F28°F29°F29°F29°F29°F30°F28°F28°F28°F28°F27°F27°F
Pressure 29.71"29.71"29.68"29.68"29.65"29.62"29.65"29.68"29.71"29.74"29.74"29.74"29.74"29.77"29.8"29.8"29.83"29.83"29.85"29.85"29.85"29.85"29.85"29.83"29.8"29.77"29.77"29.74"29.74"29.74"29.77"29.77"29.8"29.83"29.83"29.83"29.83"29.83"29.85"29.85"29.85"29.88"29.88"29.91"29.91"29.88"29.88"29.85"
Wind Speed 12.2 mph11.3 mph11.4 mph12.1 mph13 mph12.8 mph12.2 mph12.4 mph13.2 mph13.1 mph11 mph7.9 mph6.5 mph6.8 mph5.7 mph4.4 mph3.6 mph2.9 mph1.4 mph1.7 mph3.8 mph7 mph9.8 mph10.2 mph10.2 mph11.6 mph13.3 mph14.6 mph14.6 mph14 mph11 mph9.2 mph8.4 mph6.5 mph5.5 mph5.1 mph5.4 mph4.8 mph4.4 mph3.6 mph2.8 mph2.7 mph1.8 mph0.5 mph2 mph2.8 mph3.1 mph3.2 mph
Wind
Direction
254°
WSW
242°
WSW
222°
SW
218°
SW
227°
SW
230°
SW
215°
SW
209°
SSW
190°
S
176°
S
169°
S
159°
SSE
163°
SSE
172°
S
178°
S
171°
S
169°
S
164°
SSE
197°
SSW
235°
SW
221°
SW
225°
SW
236°
SW
247°
WSW
252°
WSW
250°
WSW
247°
WSW
243°
WSW
237°
WSW
229°
SW
218°
SW
192°
SSW
174°
S
169°
S
179°
S
176°
S
163°
SSE
144°
SE
131°
SE
121°
ESE
124°
SE
132°
SE
135°
SE
249°
WSW
287°
WNW
292°
WNW
297°
WNW
274°
W

Daily Forecast

Date High Low Precip. Humidity
Today
May 25

Clear
89 °F
68 °F
0%
19%
Sunday
May 26

Clear
94 °F
68 °F
0%
13%
Monday
May 27

Clear
99 °F
72 °F
0%
10%
Tuesday
May 28

Clear
101 °F
75 °F
0%
8%
Wednesday
May 29

Clear
101 °F
75 °F
0%
8%
Thursday
May 30

Clear
102 °F
75 °F
0%
9%
Friday
May 31

Clear
103 °F
77 °F
0%
8%
Saturday
Jun 1

Clear
104 °F
77 °F
0%
7%
Sunday
Jun 2

Clouds
103 °F
78 °F
0%
10%
Monday
Jun 3

Clear
106 °F
77 °F
0%
8%
Tuesday
Jun 4

Clouds
111 °F
83 °F
0%
7%
Wednesday
Jun 5

Clear
110 °F
82 °F
0%
8%
Thursday
Jun 6

Clear
111 °F
79 °F
0%
8%
Friday
Jun 7

Clear
115 °F
82 °F
0%
8%
Saturday
Jun 8

Clouds
117 °F
88 °F
0%
6%
Sunday
Jun 9

Clouds
118 °F
90 °F
0%
11%

Temperature 8-14 Day Outlook



Precipitation 8-14 Day Outlook






About Us
Contact Us
Site Map
Search Site
Advertise With Us
   
Mead.USLakes.info
THE LAKE MEAD WEBSITE

Copyright 2024, Lakes Online
Privacy    |    Legal